Content
SEND FEEDBACK

Daily
Averages
Monthly
Summary
United Kingdom

BOURNEMOUTH, ENGLAND


Home > Europe > United Kingdom > England
Elevation: 36 feet     Latitude: 50 47N     Longitude: 001 50W

WEATHER
 
SELECT A DAY
Number of Records: 260,723;   Date Range: 7/1/96 - 11/26/14
 
SHARE

PRINT THIS DATA

[ ← Previous Day ]
WEATHER ALMANAC - OCTOBER 25, 2013
[ Next Day → ]
[ °C ]   °F
Weather ElementAverageHighLow
Temperature61.6 °F62.6 °F (9:50 am)60.8 °F (5:20 am)
Dewpoint57.8 °F59 °F (5:20 am)55.4 °F (5:20 pm)
Humidity87 %94 % (5:20 am)76 % (7:00 pm)
Barometer29.65 in29.72 in (10:00 pm)29.56 in (5:20 am)
Wind Speed15.3 mph19.6 mph (1:20 pm)
Weather ElementAverage
Visibility6.3 mi
Wind DirectionSSW (206.7 °)

Weather ElementTotal
Precipitation---
Heating Degree Days3.3 (Base 65)
Growing Degree Days11.7 (Base 50)
Averaged from 42 records on October 25, 2013
WEATHER CONDITIONS BREAKOUT
WIND DIRECTION BREAKOUT
WEATHER BY HOUR - OCTOBER 25, 2013
[ °C ]   °F
Local TimeTemperatureDewpointHumidityBarometerVisibilityWind DirectionWind SpeedGust SpeedPrecipitationEventsConditions
5:20 AM60.8 °F59.0 °F94 %29.56 in6.2 miSouth (170°)15.0 mphRainLight Rain
5:50 AM60.8 °F59.0 °F94 %29.56 in6.2 miSouth (180°)17.3 mphMostly Cloudy
6:20 AM60.8 °F59.0 °F94 %29.56 in6.2 miSouth (190°)13.8 mphMostly Cloudy
6:50 AM60.8 °F59.0 °F94 %29.56 in6.2 miSSW (200°)13.8 mphOvercast
7:00 AM61.0 °F59.0 °F92 %29.57 in7.0 miSSW (200°)13.8 mph
7:20 AM60.8 °F59.0 °F94 %29.56 in6.2 miSSW (210°)16.1 mphMostly Cloudy
7:50 AM60.8 °F59.0 °F94 %29.56 in6.2 miSSW (210°)13.8 mphMostly Cloudy
8:20 AM60.8 °F59.0 °F94 %29.59 in6.2 miSW (220°)11.5 mphMostly Cloudy
8:50 AM60.8 °F57.2 °F88 %29.62 in6.2 miSW (220°)13.8 mphMostly Cloudy
9:20 AM60.8 °F57.2 °F88 %29.62 in6.2 miSW (220°)13.8 mphMostly Cloudy
9:50 AM62.6 °F59.0 °F88 %29.62 in6.2 miSW (220°)15.0 mphScattered Clouds
10:00 AM62.0 °F58.0 °F84 %29.65 in7.0 miSW (220°)15.0 mphScattered Clouds
10:20 AM62.6 °F59.0 °F88 %29.65 in6.2 miSSW (210°)16.1 mphMostly Cloudy
10:50 AM62.6 °F59.0 °F88 %29.65 in6.2 miSSW (210°)15.0 mphScattered Clouds
11:20 AM62.6 °F59.0 °F88 %29.65 in6.2 miSSW (210°)16.1 mphMostly Cloudy
11:50 AM62.6 °F59.0 °F88 %29.65 in6.2 miSSW (200°)17.3 mphScattered Clouds
12:20 PM60.8 °F59.0 °F94 %29.68 in6.2 miSSW (210°)17.3 mphScattered Clouds
12:50 PM62.6 °F59.0 °F88 %29.68 in6.2 miSSW (200°)16.1 mphScattered Clouds
1:00 PM62.0 °F59.0 °F87 %29.68 in6.0 miSSW (200°)16.1 mphPartly Cloudy
1:20 PM62.6 °F59.0 °F88 %29.68 in6.2 miSSW (200°)19.6 mphScattered Clouds
1:50 PM62.6 °F59.0 °F88 %29.68 in6.2 miSSW (200°)19.6 mphScattered Clouds
2:20 PM62.6 °F59.0 °F88 %29.65 in6.2 miSSW (200°)16.1 mphPartly Cloudy
2:50 PM62.6 °F59.0 °F88 %29.65 in5.6 miSSW (200°)18.4 mphScattered Clouds
3:20 PM62.6 °F59.0 °F88 %29.65 in6.2 miSSW (200°)18.4 mphPartly Cloudy
3:50 PM62.6 °F59.0 °F88 %29.65 in6.2 miSouth (190°)15.0 mphScattered Clouds
4:00 PM62.0 °F58.0 °F84 %29.67 in6.0 miSouth (190°)15.0 mphLight Haze
4:20 PM62.6 °F59.0 °F88 %29.65 in6.2 miSouth (190°)15.0 mphMostly Cloudy
4:50 PM62.6 °F57.2 °F82 %29.65 in6.2 miSSW (210°)16.1 mphScattered Clouds
5:20 PM62.6 °F55.4 °F77 %29.65 in6.2 miSSW (210°)16.1 mphScattered Clouds
5:50 PM60.8 °F57.2 °F88 %29.65 in6.2 miSSW (200°)15.0 mphMostly Cloudy
6:20 PM60.8 °F57.2 °F88 %29.68 in6.2 miSSW (200°)12.7 mphScattered Clouds
6:50 PM60.8 °F57.2 °F88 %29.68 in6.2 miSSW (210°)13.8 mphScattered Clouds
7:00 PM62.0 °F56.0 °F76 %29.70 in7.0 miSSW (210°)13.8 mphPartly Cloudy
7:20 PM60.8 °F57.2 °F88 %29.68 in6.2 miSSW (210°)13.8 mphMostly Cloudy
7:50 PM62.6 °F55.4 °F77 %29.68 in6.2 miSSW (210°)15.0 mphPartly Cloudy
8:20 PM60.8 °F55.4 °F82 %29.68 in6.2 miSW (220°)13.8 mphScattered Clouds
8:50 PM60.8 °F55.4 °F82 %29.71 in6.2 miSW (220°)16.1 mphScattered Clouds
9:20 PM60.8 °F55.4 °F82 %29.71 in6.2 miSW (220°)15.0 mphScattered Clouds
9:50 PM60.8 °F55.4 °F82 %29.71 in6.2 miSW (220°)15.0 mphPartly Cloudy
10:00 PM61.0 °F56.0 °F78 %29.72 in7.0 miSW (220°)15.0 mphScattered Clouds
10:20 PM60.8 °F55.4 °F82 %29.71 in6.2 miSW (220°)13.8 mphPartly Cloudy
10:50 PM60.8 °F55.4 °F82 %29.71 in6.2 miSW (230°)13.8 mphScattered Clouds
Hourly data recorded from EGHH, located miles away from Bournemouth, England







STORIES FROM OUR PARTNERS